Location: CCZU
(31.6840°N, 119.9550°E)
Time: 12:03:32
(UTC+08:00)

Hubble Space Telescope - Pass Details

Date: 01 October 2022
Orbit: 530 x 534 km, 28.5° (Epoch: 28 November)

Event Time Altitude Azimuth Distance (km) Brightness Sun altitude
Rises 19:01:18 0° 269° (W) 2,653 6.0 -16.9°
Maximum altitude 19:07:29 42° 190° (S) 751 1.5 -18.2°
Enters shadow 19:08:42 33° 147° (SSE) 901 1.5 -18.5°
